DW8424 Weather Reports


Display with metric or nautical units.
time (UTC)temp
F
wind
direction
speed
MPH
gust
MPH
rain 1hr
in
rain 24hr
in
rain mn
in
humidity
%
barometer
mb
20191019111538 52 355 1.0 3.0 0.01 0.02 0.02 87 996.7
20191019110018 51 232 0.0 4.0 0.00 0.02 0.01 88 996.6
20191019104502 51 209 1.0 6.0 0.00 0.02 0.01 89 996.5
20191019103156 50 181 1.0 5.0 0.00 0.02 0.01 90 996.4
20191019101634 49 210 0.0 3.0 0.00 0.02 0.01 92 996.3
20191019100303 48 209 0.0 3.0 0.00 0.02 0.01 92 996.3
20191019094821 48 269 0.0 3.0 0.00 0.02 0.01 93 996.3
20191019093124 48 245 0.0 6.0 0.00 0.02 0.01 93 996.2
20191019091717 48 281 0.0 4.0 0.00 0.02 0.01 93 996.2
20191019090149 47 225 0.0 3.0 0.00 0.02 0.01 94 996.1
20191019084607 47 283 0.0 1.0 0.00 0.02 0.01 93 996.0
20191019083127 47 251 0.0 1.0 0.00 0.02 0.01 94 995.8
20191019081554 47 304 0.0 2.0 0.00 0.02 0.01 94 995.7
20191019080125 47 193 0.0 7.0 0.00 0.02 0.01 94 995.6
20191019074612 46 261 2.0 6.0 0.00 0.02 0.01 94 995.4
20191019073137 46 162 1.0 5.0 0.00 0.02 0.01 94 995.3
20191019071623 46 223 1.0 5.0 0.00 0.02 0.01 94 995.1
20191019070041 45 239 1.0 5.0 0.00 0.02 0.01 95 995.0
20191019064609 45 239 1.0 5.0 0.00 0.02 0.01 95 995.0
20191019063105 45 221 1.0 3.0 0.00 0.02 0.01 94 994.9
20191019061542 45 181 0.0 6.0 0.00 0.02 0.01 95 994.8
20191019060051 45 99 0.0 3.0 0.00 0.02 0.01 94 994.8
20191019054637 46 229 0.0 3.0 0.00 0.02 0.01 94 994.7
20191019053048 46 200 1.0 5.0 0.00 0.02 0.01 94 994.7
20191019051617 46 215 1.0 7.0 0.00 0.02 0.01 94 994.7
20191019050037 46 256 1.0 5.0 0.00 0.02 0.01 94 994.7
20191019044553 47 260 2.0 7.0 0.00 0.14 0.01 94 994.8
20191019043103 47 214 2.0 7.0 0.00 0.14 0.01 94 994.8
20191019041558 47 233 2.0 6.0 0.00 0.14 0.01 94 994.7
20191019040028 47 221 1.0 6.0 0.00 0.14 0.01 94 994.7
20191019034524 46 224 1.0 4.0 0.00 0.15 0.01 94 994.5
20191019033026 46 197 1.0 8.0 0.00 0.15 0.01 94 994.3
20191019031523 46 257 2.0 6.0 0.00 0.15 0.01 94 994.4
20191019030018 47 215 3.0 7.0 0.00 0.15 0.01 94 994.4
20191019024512 47 189 2.0 5.0 0.00 0.15 0.01 94 994.3
20191019023047 47 217 2.0 6.0 0.01 0.15 0.01 94 994.4
20191019021512 47 233 1.0 6.0 0.01 0.15 0.01 94 994.3
20191019020004 47 245 2.0 8.0 0.01 0.15 0.01 94 994.2
20191019014709 48 195 2.0 6.0 0.01 0.15 0.01 94 994.2
20191019013206 47 105 2.0 6.0 0.00 0.14 0.00 93 994.2
20191019011634 47 174 1.0 5.0 0.00 0.14 0.00 93 994.3
20191019010112 47 138 2.0 6.0 0.00 0.14 0.00 93 994.2
20191019004625 47 200 2.0 9.0 0.00 0.14 0.00 92 994.1
20191019003117 48 159 1.0 6.0 0.00 0.14 0.00 92 994.2
20191019001704 47 184 3.0 7.0 0.00 0.14 0.00 92 994.2
20191019000118 47 198 2.0 6.0 0.00 0.14 0.00 92 994.3
20191018234624 47 233 2.0 6.0 0.00 0.14 0.00 92 994.2
20191018233124 47 186 2.0 7.0 0.00 0.14 0.00 93 994.3
20191018231540 47 165 2.0 6.0 0.01 0.14 0.00 92 994.3
20191018230054 47 214 2.0 5.0 0.01 0.14 0.00 92 994.3
20191018224537 47 221 1.0 5.0 0.01 0.14 0.14 92 994.5
20191018223106 47 275 1.0 5.0 0.01 0.14 0.14 92 994.5
20191018221603 47 231 2.0 5.0 0.00 0.13 0.13 91 994.5
20191018220135 47 30 3.0 7.0 0.00 0.13 0.13 91 994.5
20191018214604 47 231 2.0 6.0 0.00 0.13 0.13 90 994.4
20191018213124 47 177 2.0 6.0 0.00 0.13 0.13 90 994.7
20191018211608 47 207 1.0 4.0 0.00 0.13 0.13 90 994.6
20191018210038 47 186 2.0 6.0 0.00 0.13 0.13 90 994.7
20191018204620 47 257 2.0 6.0 0.00 0.13 0.13 90 994.5
20191018203031 47 205 1.0 5.0 0.00 0.13 0.13 90 994.4
20191018201558 47 167 0.0 5.0 0.00 0.13 0.13 90 994.8
20191018200046 47 203 1.0 4.0 0.00 0.13 0.13 90 994.7
20191018194537 47 227 1.0 5.0 0.00 0.13 0.13 89 994.7
20191018193105 48 191 1.0 5.0 0.00 0.13 0.13 89 994.9
20191018191542 48 218 1.0 5.0 0.00 0.13 0.13 89 994.9
20191018190027 47 193 1.0 8.0 0.00 0.13 0.13 89 995.0
20191018184536 48 207 2.0 6.0 0.00 0.13 0.13 89 994.9
20191018183038 48 229 2.0 7.0 0.00 0.13 0.13 88 995.1
20191018181521 49 214 3.0 9.0 0.00 0.13 0.13 87 995.0
20191018180038 50 228 3.0 10.0 0.00 0.13 0.13 85 994.9
20191018174528 50 231 2.0 6.0 0.00 0.13 0.13 84 995.0
20191018173015 50 165 2.0 6.0 0.00 0.13 0.13 84 995.1
20191018171514 51 234 2.0 6.0 0.00 0.13 0.13 83 995.1
20191018170013 51 214 2.0 7.0 0.00 0.13 0.13 83 994.9
20191018164523 51 226 2.0 10.0 0.00 0.13 0.13 83 994.8
20191018161554 52 198 1.0 11.0 0.00 0.13 0.13 83 994.7
20191018160008 52 176 2.0 8.0 0.00 0.13 0.13 82 994.6
20191018154536 52 160 4.0 9.0 0.00 0.13 0.13 81 994.5
20191018153014 52 205 3.0 7.0 0.00 0.13 0.13 80 994.5
20191018151505 52 186 2.0 7.0 0.00 0.13 0.13 81 994.3
20191018150007 53 262 1.0 6.0 0.00 0.13 0.13 81 994.4
20191018144509 53 234 3.0 6.0 0.00 0.13 0.13 80 994.4
20191018143003 54 180 2.0 11.0 0.00 0.13 0.13 80 994.3
20191018141512 53 297 2.0 6.0 0.00 0.13 0.13 81 994.3
20191018140010 53 262 3.0 7.0 0.00 0.13 0.13 80 994.2
20191018134841 53 226 2.0 8.0 0.00 0.13 0.13 80 994.3
20191018133226 52 264 2.0 7.0 0.00 0.13 0.13 81 994.3
20191018131751 52 224 2.0 6.0 0.00 0.13 0.13 81 994.4
20191018130153 53 242 3.0 7.0 0.00 0.13 0.13 78 994.4
20191018124705 52 284 2.0 10.0 0.00 0.13 0.13 80 994.3
20191018123128 54 239 3.0 9.0 0.00 0.13 0.13 79 994.3
20191018121712 54 281 2.0 6.0 0.00 0.13 0.13 82 994.4
20191018120140 53 158 2.0 8.0 0.00 0.13 0.13 84 994.5
20191018114719 51 243 3.0 8.0 0.00 0.13 0.13 86 994.3
20191018113129 50 290 3.0 9.0 0.00 0.13 0.13 88 994.4